Hourly Weather Murol

Today, 20 September, Monday

Time Temperature Precipitation Wind Pressure Humidity
00:00 +9°C° 0.3 mm 2 mps 672 mmHg 95%
01:00 +10°C° 0.1 mm 1 mps 672 mmHg 95%
02:00 +10°C° 0.1 mm 1 mps 672 mmHg 95%
03:00 +10°C° 0.1 mm 1 mps 672 mmHg 95%
04:00 +9°C° 0.1 mm 1 mps 672 mmHg 96%
05:00 +9°C° 0.1 mm 1 mps 672 mmHg 96%
06:00 +9°C° 0.1 mm 1 mps 672 mmHg 96%
07:00 +9°C° 0.3 mm 1 mps 672 mmHg 96%
08:00 +10°C° 0.3 mm 1 mps 673 mmHg 96%
09:00 +10°C° 0.3 mm 1 mps 673 mmHg 96%
10:00 +10°C° 1 mm 1 mps 673 mmHg 96%
11:00 +10°C° 1 mm 1 mps 673 mmHg 96%
12:00 +10°C° 1 mm 1 mps 673 mmHg 96%
13:00 +10°C° 0.9 mm 1 mps 673 mmHg 96%
14:00 +9°C° 0.9 mm 1 mps 673 mmHg 96%
15:00 +9°C° 0.9 mm 1 mps 673 mmHg 96%
16:00 +9°C° 0.7 mm 1 mps 673 mmHg 96%
17:00 +9°C° 0.7 mm 1 mps 674 mmHg 97%
18:00 +9°C° 0.7 mm 1 mps 674 mmHg 98%
19:00 +9°C° 0.2 mm 1 mps 674 mmHg 98%
20:00 +9°C° 0.2 mm 1 mps 675 mmHg 97%
21:00 +9°C° 0.2 mm 1 mps 675 mmHg 97%
22:00 +9°C° 0 mm 1 mps 675 mmHg 97%
23:00 +9°C° 0 mm 1 mps 675 mmHg 97%

Tomorrow, 21 September, Tuesday

Time Temperature Precipitation Wind Pressure Humidity
00:00 +9°C° 0 mm 1 mps 675 mmHg 97%
01:00 +9°C° 0 mm 1 mps 675 mmHg 97%
02:00 +9°C° 0 mm 1 mps 675 mmHg 98%
03:00 +9°C° 0 mm 1 mps 675 mmHg 98%
04:00 +9°C° 0.1 mm 1 mps 675 mmHg 98%
05:00 +9°C° 0.1 mm 1 mps 676 mmHg 98%
06:00 +9°C° 0.1 mm 1 mps 676 mmHg 98%
07:00 +10°C° 0.1 mm 1 mps 676 mmHg 97%
08:00 +9°C° 0.1 mm 2 mps 677 mmHg 96%
09:00 +9°C° 0.1 mm 2 mps 677 mmHg 95%
10:00 +10°C° 0.1 mm 2 mps 677 mmHg 91%
11:00 +10°C° 0.1 mm 2 mps 677 mmHg 87%
12:00 +12°C° 0.1 mm 2 mps 677 mmHg 83%
13:00 +13°C° 0 mm 2 mps 677 mmHg 79%
14:00 +12°C° 0 mm 3 mps 677 mmHg 76%
15:00 +13°C° 0 mm 3 mps 677 mmHg 72%
16:00 +12°C° 0 mm 2 mps 677 mmHg 78%
17:00 +10°C° 0 mm 2 mps 677 mmHg 84%
18:00 +10°C° 0 mm 1 mps 677 mmHg 89%
19:00 +9°C° 0 mm 1 mps 677 mmHg 91%
20:00 +9°C° 0 mm 1 mps 677 mmHg 93%
21:00 +8°C° 0 mm 1 mps 677 mmHg 94%
22:00 +8°C° 0 mm 1 mps 677 mmHg 95%
23:00 +8°C° 0 mm 1 mps 677 mmHg 95%

Day after tomorrow, 22 September, Wednesday

Time Temperature Precipitation Wind Pressure Humidity
00:00 +8°C° 0 mm 1 mps 677 mmHg 96%
01:00 +7°C° 0 mm 1 mps 676 mmHg 96%
02:00 +7°C° 0 mm 1 mps 676 mmHg 96%
03:00 +7°C° 0 mm 1 mps 676 mmHg 96%
04:00 +7°C° 0 mm 1 mps 676 mmHg 96%
05:00 +7°C° 0 mm 1 mps 676 mmHg 96%
06:00 +7°C° 0 mm 1 mps 676 mmHg 95%
07:00 +9°C° 0 mm 1 mps 677 mmHg 88%
08:00 +11°C° 0 mm 1 mps 677 mmHg 80%
09:00 +13°C° 0 mm 1 mps 678 mmHg 72%
10:00 +15°C° 0 mm 1 mps 678 mmHg 67%
11:00 +16°C° 0 mm 1 mps 678 mmHg 61%
12:00 +18°C° 0 mm 1 mps 678 mmHg 55%
13:00 +17°C° 0 mm 2 mps 678 mmHg 55%
14:00 +17°C° 0 mm 2 mps 677 mmHg 56%
15:00 +17°C° 0 mm 2 mps 677 mmHg 56%
16:00 +15°C° 0 mm 2 mps 676 mmHg 66%
17:00 +13°C° 0 mm 1 mps 676 mmHg 76%
18:00 +10°C° 0 mm 1 mps 675 mmHg 86%
19:00 +10°C° 0 mm 1 mps 675 mmHg 87%
20:00 +9°C° 0 mm 1 mps 675 mmHg 88%
21:00 +8°C° 0 mm 1 mps 675 mmHg 88%
22:00 +8°C° 0 mm 1 mps 675 mmHg 88%
23:00 +8°C° 0 mm 1 mps 674 mmHg 87%

23 September, Thursday

Time Temperature Precipitation Wind Pressure Humidity
00:00 +7°C° 0 mm 1 mps 674 mmHg 87%
01:00 +7°C° 0 mm 1 mps 674 mmHg 85%
02:00 +7°C° 0 mm 1 mps 674 mmHg 83%
03:00 +7°C° 0 mm 1 mps 674 mmHg 81%
04:00 +7°C° 0 mm 1 mps 674 mmHg 80%
05:00 +7°C° 0 mm 1 mps 673 mmHg 78%
06:00 +7°C° 0 mm 1 mps 673 mmHg 76%
07:00 +10°C° 0 mm 1 mps 674 mmHg 69%
08:00 +11°C° 0 mm 0 mps 675 mmHg 63%
09:00 +14°C° 0 mm 0 mps 675 mmHg 56%
10:00 +16°C° 0 mm 1 mps 675 mmHg 52%
11:00 +19°C° 0 mm 1 mps 676 mmHg 49%
12:00 +20°C° 0 mm 1 mps 676 mmHg 46%
13:00 +20°C° 0 mm 1 mps 675 mmHg 46%
14:00 +20°C° 0 mm 1 mps 675 mmHg 47%
15:00 +20°C° 0 mm 1 mps 675 mmHg 47%
16:00 +18°C° 0 mm 1 mps 674 mmHg 58%
17:00 +14°C° 0 mm 1 mps 674 mmHg 69%
18:00 +11°C° 0 mm 0 mps 673 mmHg 80%
19:00 +10°C° 0 mm 0 mps 673 mmHg 81%
20:00 +10°C° 0 mm 1 mps 673 mmHg 82%
21:00 +10°C° 0 mm 1 mps 673 mmHg 84%
22:00 +10°C° 0 mm 1 mps 673 mmHg 83%
23:00 +9°C° 0 mm 1 mps 673 mmHg 83%

24 September, Friday

Time Temperature Precipitation Wind Pressure Humidity
00:00 +9°C° 0 mm 1 mps 673 mmHg 83%
01:00 +9°C° 0 mm 1 mps 673 mmHg 83%
02:00 +9°C° 0 mm 1 mps 672 mmHg 82%
03:00 +9°C° 0 mm 1 mps 672 mmHg 82%
04:00 +9°C° 0 mm 1 mps 672 mmHg 81%
05:00 +8°C° 0 mm 1 mps 672 mmHg 81%
06:00 +8°C° 0 mm 1 mps 672 mmHg 80%
07:00 +11°C° 0 mm 1 mps 672 mmHg 72%
08:00 +14°C° 0 mm 1 mps 673 mmHg 63%
09:00 +15°C° 0 mm 0 mps 674 mmHg 55%
10:00 +16°C° 0 mm 0 mps 674 mmHg 51%
11:00 +20°C° 0 mm 1 mps 674 mmHg 48%
12:00 +21°C° 0 mm 1 mps 674 mmHg 44%
13:00 +21°C° 0 mm 1 mps 674 mmHg 45%
14:00 +21°C° 0 mm 1 mps 673 mmHg 45%
15:00 +21°C° 0 mm 1 mps 673 mmHg 46%
16:00 +19°C° 0 mm 1 mps 673 mmHg 56%
17:00 +15°C° 0 mm 1 mps 672 mmHg 65%
18:00 +12°C° 0 mm 0 mps 672 mmHg 75%
19:00 +12°C° 0 mm 1 mps 672 mmHg 76%
20:00 +12°C° 0 mm 1 mps 672 mmHg 77%
21:00 +11°C° 0 mm 1 mps 672 mmHg 78%
22:00 +11°C° 0 mm 1 mps 672 mmHg 78%
23:00 +11°C° 0 mm 1 mps 672 mmHg 78%

25 September, Saturday

Time Temperature Precipitation Wind Pressure Humidity
00:00 +10°C° 0 mm 1 mps 672 mmHg 78%
01:00 +10°C° 0 mm 1 mps 672 mmHg 78%
02:00 +10°C° 0 mm 1 mps 672 mmHg 77%
03:00 +10°C° 0 mm 1 mps 671 mmHg 76%
04:00 +10°C° 0 mm 1 mps 671 mmHg 76%
05:00 +10°C° 0 mm 1 mps 671 mmHg 75%
06:00 +11°C° 0 mm 1 mps 671 mmHg 74%
07:00 +13°C° 0 mm 1 mps 672 mmHg 68%
08:00 +16°C° 0 mm 1 mps 673 mmHg 61%
09:00 +19°C° 0 mm 1 mps 673 mmHg 55%
10:00 +20°C° 0 mm 1 mps 673 mmHg 52%
11:00 +21°C° 0 mm 1 mps 673 mmHg 49%
12:00 +22°C° 0 mm 1 mps 673 mmHg 46%
13:00 +22°C° 0 mm 1 mps 673 mmHg 47%
14:00 +22°C° 0 mm 1 mps 673 mmHg 49%
15:00 +22°C° 0 mm 1 mps 673 mmHg 50%
16:00 +20°C° 0 mm 1 mps 672 mmHg 58%
17:00 +18°C° 0 mm 1 mps 672 mmHg 66%
18:00 +15°C° 0 mm 1 mps 671 mmHg 74%
19:00 +15°C° 0 mm 1 mps 671 mmHg 76%
20:00 +14°C° 0 mm 1 mps 671 mmHg 78%
21:00 +14°C° 0 mm 1 mps 671 mmHg 81%
22:00 +13°C° 0.4 mm 2 mps 671 mmHg 84%
23:00 +13°C° 0.4 mm 2 mps 671 mmHg 88%
Show more

We Need Your Consent

Meteoprog and our Service Providers may store and access personal data such as cookies, device identifiers or other similar technologies on your device and process such data to personalise content and ads, as well as provide social media features and to analyse the traffic.

  • Store and/or access information on your device

    Cookies, device identifiers or other information can be stored or accessed on your device for the purposes indicated above.

  • Personalised ads and content, ad and content measurement, audience insights, and products development

    Ads and content can be personalised based on a profile. More data can be added to better personalise ads and content. Ad and content performance can be measured. Insights about the audience who saw the ads and content can be derived. Such data can be used to develop or improve user’s experience, systems and software.

By clicking ‘I Agree’ you will allow the use of indicated cookies, device identifiers, web beacons or other similar technologies. Your settings can be changed in the browser on your device.

For certain purposes, legitimate interests may be relied on, rather than consent. You can read more about this in our Privacy and Cookie Policy.